CZ-6A DEB, 56593

Orbit data source: Space-Track

CZ-6A DEB, 56593 is space debris in SSO originally from a launch on Fri, 11 Nov 2022 UTC launched from the Taiyaun Space Center, China (TSC). Debris objects in space refer to the collection of defunct objects orbiting the Earth. Examples of debris include non-operational satellites, rocket bodies, and fragments generated from explosions, collisions, or faulty payload assembly.

Loading next visibility...
Identifier
56593, 2022-151ADR
Orbit
SSO
Country
Flag of CNCN / PRC
Related business
Manufacturer
SAST
Mission
Spacecraft
Bus & Motor
Unknown
Mass
Unknown
Launch date (UTC)
2022-11-11 (4 years ago)
Launch vehicle
Unknown
Launch site
Taiyaun Space Center, China (TSC)
Object type
Payload
Rocket body
Debris
Shape & HBR
Unknown shape, 0.1 m
Radar Cross Section
Medium (>0.1 m² and <1 m²)

Expand to show TLE details & history
Last TLE update: 13 hours ago

TLE from 13 hours ago
0 CZ-6A DEB
1 56593U 22151ADR 26264.38982726  .00001385  00000-0  39729-3 0  9994
2 56593  98.6517 310.8034 0118409  90.3251 271.1508 14.42550502179412
Epoch: 2026-09-21T09:21Z
TLE epoch observation values (Epoch: 2026-09-21T09:21:21.075Z)
Latitude
0.00008°
Longitude
170.19523°
Altitude
752.336 km
Speed
7.479 km/s
True Right ascension
20h 43m 12s
True Declination
0° 00' 00"
Sunlit
Object was in full shadow at epoch
Visualization orbit readout
Latitude
Unknown
Longitude
Unknown
Altitude
Unknown
Speed
Unknown
Apparent Right ascension
Unknown
Apparent Declination
Unknown
Sunlit
N/A
Visualization observer readout
Local Sidereal Time
15:11:19
Azimuth
Unknown
Elevation
Unknown
Doppler factor
Unknown
Orbital elements
Apogee altitude
831.58 km
Perigee altitude
662.839 km
Semi-major axis
7,125.346 km
Eccentricity
0.01184
Inclination
98.6517°
RAAN
310.8034°
Arg. of periapsis
90.3251°
True anomaly
269.79393°
Mean anomaly
271.1508°
Eccentric anomaly
270.47239°
Mean motion
3.60856 °/min
Orbital period
99.76 mins
BSTAR
0.00039729
Loading maneuver chart data...
Computing Atmospheric mass density...

Documentation

Showing up to 5 results
|